Regional Weather Roundup
Issued by NWS

Home | Current Version | Previous Version | Graphics & Text | Print | Product List | Glossary On
Versions: 1 2 3 4 5 6 7 8 9 10 11 12 13 14 15 16 17 18 19 20 21 22 23 24 25 26 27 28 29 30 31 32 33 34 35 36 37 38 39 40 41 42 43 44 45 46 47 48 49
000
ASUS45 KBOI 041410
RWRID
WEATHER ROUNDUP FOR IDAHO
NATIONAL WEATHER SERVICE BOISE ID
800 AM MDT MON MAY 04 2015

NOTE: "FAIR" INDICATES FEW OR NO CLOUDS BELOW 12000 FEET
WITH NO SIGNIFICANT WEATHER AND/OR OBSTRUCTIONS TO VISIBILITY

IDZ012-014-041500-
SOUTHWEST IDAHO


CITY           SKY/WX    TMP DP  RH WIND       PRES   REMARKS
BOISE          MOSUNNY   59  33  37 E5        29.89R
CALDWELL       MOSUNNY   46  34  61 SE5       29.90R
MOUNTAIN HOME  MOSUNNY   51  37  57 E7        29.90R
$$

IDZ016-017-041500-
SOUTHCENTRAL IDAHO


CITY           SKY/WX    TMP DP  RH WIND       PRES   REMARKS
BURLEY         SUNNY     49  41  74 E3        29.94R
JEROME         MOSUNNY   54  39  57 NE16      29.94R
TWIN FALLS     SUNNY     58  40  51 S3        29.93R
$$

IDZ019>023-041500-
SOUTHEAST IDAHO


CITY           SKY/WX    TMP DP  RH WIND       PRES   REMARKS
IDAHO FALLS    MOSUNNY   44  41  89 N5        29.99R
POCATELLO      MOSUNNY   47  38  71 CALM      29.98R
REXBURG        LGT RAIN  43  37  79 N5        30.00R
$$

IDZ006-010-011-018-031-032-041500-
CENTRAL IDAHO MOUNTAINS


CITY           SKY/WX    TMP DP  RH WIND       PRES   REMARKS
MCCALL         PTSUNNY   37  31  78 CALM      29.97R
HAILEY         PTSUNNY   48  36  61 NW16      30.01R
STANLEY          N/A     31  25  78 CALM      30.08R
SALMON           N/A     39  34  81 N3        30.00R
CHALLIS        SUNNY     46  30  53 CALM      30.01R
$$

IDZ002-004-006-007-026-041500-
NORTHERN IDAHO


CITY           SKY/WX    TMP DP  RH WIND       PRES   REMARKS
LEWISTON       SUNNY     49  34  56 CALM      29.91R
LOWELL           N/A     40  36  86 CALM      29.99R
COEUR D`ALENE  SUNNY     43  34  70 E7        29.94R
MULLAN PASS    SUNNY     44  20  38 S7        29.96R
$$



USA.gov is the U.S. government's official web portal to all federal, state and local government web resources and services.